Weather History for Rantoul, IL

Change the Weather History Date:

Friday, April 26, 2013

  Actual Average (KCMI) Record (KCMI)
Temperature  
Mean Temperature 51 °F 56 °F  
Max Temperature 65 °F 68 °F 83 °F (2014)
Min Temperature 37 °F 44 °F 36 °F (2002)
Degree Days  
Heating Degree Days 14 10  
Month to date heating degree days 373  
Since 1 July heating degree days 5631  
Cooling Degree Days 0 0  
Month to date cooling degree days 0  
Year to date cooling degree days 1  
Growing Degree Days 1 (Base 50)    
Moisture  
Dew Point 40 °F    
Average Humidity 66    
Maximum Humidity 87    
Minimum Humidity 44    
Precipitation  
Precipitation 0.00 in 0.14 in 0.63 in (1949)
Month to date precipitation 3.17  
Year to date precipitation 9.99  
Sea Level Pressure  
Sea Level Pressure 30.35 in    
Wind  
Wind Speed 6 mph (South)    
Max Wind Speed 18 mph    
Max Gust Speed 23 mph    
Visibility 10 miles    
Events      
T = Trace of Precipitation, MM = Missing Value Source: NWS Daily Summary

Daily Weather History Graph

Daily Weather History Graph

Search for Another Location

Airport:

Trip Planner

Search our weather history database for the weather conditions in past years. The results will help you decide how hot, cold, wet, or windy it might be!

Date:

Astronomy

Apr. 26, 2013 Rise Set
Actual Time 5:58 AM CDT 7:43 PM CDT
Civil Twilight 5:29 AM CDT 8:12 PM CDT
Nautical Twilight 4:54 AM CDT 8:47 PM CDT
Astronomical Twilight 4:16 AM CDT 9:25 PM CDT
Moon 9:05 PM CDT (4/26) 6:25 AM CDT (4/26)
Length of Visible Light 14h 42m
Length of Day
13h 44m
Full, 99% of the Moon is Illuminated
Apr 26
Full
May 2
Last Quarter
May 9
New
May 17
First Quarter
May 24
Full

Hourly Weather History & Observations

Time (CDT) Temp. Windchill Dew Point Humidity Pressure Visibility Wind Dir Wind Speed Gust Speed Precip Events Conditions
12:15 AM 41.5 °F - 35.6 °F 79% 30.34 in 10.0 mi Calm Calm - N/A   Clear
12:35 AM 41.0 °F - 35.2 °F 80% 30.35 in 10.0 mi Calm Calm - N/A   Clear
12:55 AM 40.1 °F 38.0 °F 35.4 °F 83% 30.35 in 10.0 mi ESE 3.5 mph - N/A   Clear
1:15 AM 40.3 °F 38.2 °F 34.9 °F 81% 30.35 in 10.0 mi ESE 3.5 mph - N/A   Clear
1:35 AM 39.9 °F 36.7 °F 34.5 °F 81% 30.35 in 10.0 mi SE 4.6 mph - N/A   Clear
1:55 AM 39.2 °F 37.0 °F 35.6 °F 87% 30.35 in 10.0 mi SE 3.5 mph - N/A   Clear
2:15 AM 40.1 °F - 34.7 °F 81% 30.36 in 10.0 mi Calm Calm - N/A   Clear
2:35 AM 40.1 °F - 34.7 °F 81% 30.36 in 10.0 mi Calm Calm - N/A   Clear
2:55 AM 39.4 °F - 34.7 °F 83% 30.36 in 10.0 mi Calm Calm - N/A   Clear
3:15 AM 38.7 °F 36.3 °F 34.2 °F 84% 30.36 in 10.0 mi SSE 3.5 mph - N/A   Clear
3:35 AM 38.5 °F 36.1 °F 34.2 °F 84% 30.36 in 10.0 mi SSE 3.5 mph - N/A   Clear
3:55 AM 38.5 °F 36.1 °F 33.8 °F 83% 30.36 in 10.0 mi SSE 3.5 mph - N/A   Clear
4:15 AM 38.5 °F 36.1 °F 33.6 °F 83% 30.36 in 10.0 mi SE 3.5 mph - N/A   Clear
4:35 AM 37.8 °F 34.2 °F 33.8 °F 86% 30.36 in 10.0 mi SE 4.6 mph - N/A   Clear
4:55 AM 40.1 °F 34.7 °F 33.8 °F 78% 30.36 in 10.0 mi SE 8.1 mph - N/A   Clear
5:15 AM 40.1 °F 35.3 °F 33.6 °F 78% 30.36 in 10.0 mi SE 6.9 mph - N/A   Clear
5:35 AM 39.6 °F 34.7 °F 33.3 °F 78% 30.36 in 10.0 mi SE 6.9 mph - N/A   Clear
5:55 AM 39.7 °F 34.3 °F 33.4 °F 78% 30.35 in 10.0 mi SE 8.1 mph - N/A   Clear
6:15 AM 39.6 °F 36.3 °F 33.3 °F 78% 30.36 in 10.0 mi SSE 4.6 mph - N/A   Clear
6:35 AM 38.7 °F 35.2 °F 33.6 °F 82% 30.36 in 10.0 mi SSE 4.6 mph - N/A   Clear
6:55 AM 40.8 °F 36.2 °F 34.0 °F 77% 30.36 in 10.0 mi SE 6.9 mph - N/A   Clear
7:15 AM 41.5 °F 38.6 °F 34.9 °F 77% 30.37 in 10.0 mi SSE 4.6 mph - N/A   Clear
7:35 AM 44.1 °F 40.1 °F 36.3 °F 74% 30.37 in 10.0 mi SSE 6.9 mph - N/A   Clear
7:55 AM 47.1 °F - 37.4 °F 69% 30.38 in 10.0 mi SSE 9.2 mph - N/A   Clear
8:15 AM 48.2 °F - 37.6 °F 67% 30.38 in 10.0 mi South 10.4 mph - N/A   Clear
8:35 AM 49.3 °F - 38.3 °F 66% 30.38 in 10.0 mi SSE 9.2 mph - N/A   Clear
8:55 AM 50.2 °F - 38.8 °F 65% 30.39 in 10.0 mi SSE 8.1 mph - N/A   Clear
9:15 AM 51.6 °F - 39.4 °F 63% 30.39 in 10.0 mi South 12.7 mph - N/A   Clear
9:35 AM 52.7 °F - 39.2 °F 60% 30.39 in 10.0 mi South 18.4 mph - N/A   Clear
9:55 AM 54.0 °F - 40.5 °F 60% 30.39 in 10.0 mi South 16.1 mph - N/A   Clear
10:15 AM 55.2 °F - 40.1 °F 57% 30.40 in 10.0 mi South 16.1 mph - N/A   Clear
10:35 AM 56.8 °F - 41.0 °F 55% 30.40 in 10.0 mi South 15.0 mph - N/A   Clear
10:55 AM 58.1 °F - 40.1 °F 51% 30.40 in 10.0 mi South 16.1 mph - N/A   Clear
11:15 AM 59.9 °F - 40.8 °F 49% 30.40 in 10.0 mi South 16.1 mph - N/A   Clear
11:35 AM 60.3 °F - 42.1 °F 51% 30.39 in 10.0 mi South 16.1 mph - N/A   Clear
12:15 PM 61.9 °F - 42.1 °F 48% 30.38 in 10.0 mi South 16.1 mph - N/A   Clear
12:35 PM 62.4 °F - 42.3 °F 48% 30.37 in 10.0 mi South 17.3 mph - N/A   Clear
12:55 PM 63.7 °F - 41.9 °F 45% 30.37 in 10.0 mi South 16.1 mph - N/A   Clear
1:15 PM 64.0 °F - 42.3 °F 45% 30.36 in 10.0 mi South 15.0 mph 20.7 mph N/A   Clear
1:35 PM 63.7 °F - 41.2 °F 44% 30.36 in 10.0 mi SSW 13.8 mph 23.0 mph N/A   Clear
1:55 PM 63.3 °F - 41.5 °F 45% 30.35 in 10.0 mi SSW 13.8 mph 19.6 mph N/A   Clear
2:15 PM 63.9 °F - 42.6 °F 46% 30.34 in 10.0 mi SW 12.7 mph 18.4 mph N/A   Clear
2:35 PM 64.4 °F - 43.3 °F 46% 30.33 in 10.0 mi SSW 12.7 mph 16.1 mph N/A   Clear
2:55 PM 64.6 °F - 44.1 °F 47% 30.34 in 10.0 mi SSW 12.7 mph 17.3 mph N/A   Clear
3:15 PM 65.3 °F - 43.2 °F 45% 30.33 in 10.0 mi SSW 12.7 mph 17.3 mph N/A   Clear
3:35 PM 65.5 °F - 43.9 °F 46% 30.33 in 10.0 mi SSW 12.7 mph 17.3 mph N/A   Clear
3:55 PM 65.3 °F - 43.3 °F 45% 30.32 in 10.0 mi SW 10.4 mph - N/A   Clear
4:35 PM 63.7 °F - 41.5 °F 44% 30.31 in 10.0 mi SSW 10.4 mph 18.4 mph N/A   Scattered Clouds
4:55 PM 63.7 °F - 43.5 °F 48% 30.30 in 10.0 mi South 12.7 mph - N/A   Clear
5:35 PM 63.0 °F - 44.1 °F 50% 30.31 in 10.0 mi South 9.2 mph - N/A   Scattered Clouds
5:55 PM 62.6 °F - 45.1 °F 53% 30.31 in 10.0 mi South 9.2 mph - N/A   Scattered Clouds
6:15 PM 62.1 °F - 45.5 °F 55% 30.31 in 10.0 mi South 10.4 mph - N/A   Mostly Cloudy
6:35 PM 61.7 °F - 45.5 °F 55% 30.32 in 10.0 mi South 8.1 mph - N/A   Overcast
6:55 PM 61.0 °F - 44.2 °F 54% 30.32 in 10.0 mi South 9.2 mph - N/A   Overcast
7:15 PM 60.1 °F - 46.2 °F 60% 30.33 in 10.0 mi South 8.1 mph - N/A   Overcast
7:35 PM 59.4 °F - 46.2 °F 62% 30.32 in 10.0 mi South 6.9 mph - N/A   Overcast
7:55 PM 57.4 °F - 46.8 °F 68% 30.32 in 10.0 mi South 6.9 mph - N/A   Scattered Clouds
8:15 PM 56.3 °F - 46.4 °F 69% 30.31 in 10.0 mi South 8.1 mph - N/A   Clear
8:35 PM 55.4 °F - 46.4 °F 72% 30.31 in 10.0 mi South 5.8 mph - N/A   Clear
8:55 PM 54.5 °F - 46.4 °F 74% 30.31 in 10.0 mi South 5.8 mph - N/A   Clear
9:15 PM 53.8 °F - 45.9 °F 75% 30.31 in 10.0 mi Calm Calm - N/A   Clear
9:35 PM 53.4 °F - 45.7 °F 75% 30.33 in 10.0 mi West 3.5 mph - N/A   Clear
9:55 PM 51.8 °F - 46.0 °F 81% 30.33 in 10.0 mi WSW 4.6 mph - N/A   Mostly Cloudy
10:15 PM 53.6 °F - 47.3 °F 79% 30.33 in 10.0 mi SW 4.6 mph - N/A   Overcast
10:35 PM 53.6 °F - 47.5 °F 80% 30.34 in 10.0 mi WSW 4.6 mph - N/A   Overcast
10:55 PM 54.3 °F - 46.9 °F 76% 30.33 in 10.0 mi WSW 5.8 mph - N/A   Overcast
11:15 PM 53.6 °F - 46.8 °F 78% 30.33 in 10.0 mi SW 4.6 mph - N/A   Mostly Cloudy